Location: Allen Lane School
(37.8198°N, 89.7382°W)
Time: 09:28:54
(UTC+00:00)

BlueWalker 3 - Visible Passes

Search period start: 04 December 2022 00:00
Search period end: 14 December 2022 00:00
Orbit: 501 x 519 km, 53.2° (Epoch: 03 December)

Date Brightness Start Highest point End Pass type
(mag) Time Alt. Az. Time Alt. Az. Time Alt. Az.
06 Dec 4.6 00:42:58 10° NNW 00:43:20 11° NNW 00:43:20 11° NNW visible
07 Dec 4.1 00:24:32 10° NNW 00:25:52 16° N 00:25:52 16° N visible
08 Dec 3.6 00:06:04 10° NNW 00:08:30 19° NNE 00:08:30 19° NNE visible
08 Dec 3.4 23:47:38 10° NNW 23:50:37 21° NNE 23:51:16 20° NE visible
09 Dec 4.9 01:25:44 10° NW 01:26:08 12° NW 01:26:08 12° NW visible
09 Dec 3.3 23:29:09 10° NNW 23:32:15 22° NNE 23:34:14 15° ENE visible
10 Dec 4.0 01:07:20 10° NW 01:09:06 25° WNW 01:09:06 25° WNW visible
10 Dec 3.3 23:10:41 10° NNW 23:13:51 23° NNE 23:16:59 10° E visible
11 Dec 2.7 00:48:56 10° WNW 00:52:21 50° WSW 00:52:21 50° WSW visible
12 Dec 2.8 00:30:32 10° WNW 00:34:18 49° SW 00:36:00 28° SSE visible
13 Dec 3.0 00:12:07 10° WNW 00:15:51 45° SW 00:19:32 10° SSE visible
